CAPE
0 0 0 0 0 0 0 0 0 0 0 0 0 0 0 0 0 0 0 0 0 0 0 0 0 0 0 0 0 7 0 251 154 113 48 1 307 648 469 455 452 630 284 225 119
0 0 0 0 0 0 0 0 0 0 0 0 0 0 0 0 0 0 0 0 0 0 0 0 0 0 0 0 0 3 7 228 122 237 0 0 183 780 588 336 356 650 388 236 114
0 0 0 0 0 0 0 0 0 0 0 0 0 0 0 0 0 0 0 0 0 0 0 0 0 0 0 0 0 0 0 12 53 163 31 111 88 13 396 300 294 645 338 222 171
0 0 0 0 0 0 0 0 0 0 0 0 0 0 0 0 0 0 0 0 0 0 0 0 0 0 0 0 0 2 2 1 15 115 366 221 599 261 198 213 292 514 309 205 135
0 0 0 0 0 0 0 0 0 0 0 0 0 0 0 0 0 0 0 0 0 0 0 0 0 0 0 0 0 0 0 1 26 4 350 337 183 242 103 0 108 488 259 188 170
0 0 0 0 0 0 0 0 0 0 0 0 0 0 0 0 0 0 0 0 0 0 0 0 0 0 0 0 0 0 0 0 8 0 361 145 489 254 251 105 491 405 209 246 205
0 0 0 0 0 0 0 0 0 0 0 0 0 0 0 0 0 0 0 0 0 0 0 0 0 0 0 0 0 0 0 0 0 0 390 204 320 480 480 363 282 462 267 182 278
0 0 0 0 0 0 0 0 0 0 0 0 0 0 0 0 0 0 0 0 0 0 0 0 0 0 0 0 0 0 0 0 0 0 48 305 250 583 366 293 443 464 421 388 341
0 0 0 0 0 0 0 0 0 0 0 0 0 0 0 0 0 0 0 0 0 0 0 0 0 0 0 0 0 0 0 0 0 0 0 214 252 521 323 217 564 472 516 399 323
0 0 0 0 0 0 0 0 0 0 0 0 0 0 0 0 0 0 0 0 0 0 0 0 0 0 0 0 0 0 0 0 0 0 0 26 178 173 39 6 54 568 408 425 262
0 0 0 0 0 0 0 0 0 0 0 0 0 0 0 0 0 0 0 0 0 0 0 0 0 0 0 0 0 0 0 0 0 0 0 8 137 45 0 0 2 472 332 380 325
0 0 0 0 0 0 0 0 0 0 0 0 0 0 0 0 0 0 0 0 0 0 0 0 0 0 0 0 0 0 0 0 0 0 0 0 26 69 4 0 30 12 329 247 361
0 0 0 0 0 0 0 0 0 0 0 0 0 0 0 0 0 0 0 0 0 0 0 0 0 0 0 0 0 0 0 0 0 0 0 0 14 105 7 3 56 0 454 139 411
0 0 0 0 0 0 0 0 0 0 0 0 0 0 0 0 0 0 0 0 0 0 0 0 0 0 0 0 0 0 0 0 0 0 0 0 0 76 321 49 21 286 462 306 289
0 0 0 0 0 0 0 0 0 0 0 0 0 0 0 0 0 0 0 0 0 0 0 0 0 0 0 0 0 0 0 0 0 0 0 0 0 0 40 72 7 1 392 352 177
0 0 0 0 0 0 0 0 0 0 0 0 0 0 0 0 0 0 0 0 0 0 0 0 0 0 0 0 0 0 0 0 0 0 0 0 0 0 11 280 21 0 30 329 290
0 0 0 0 0 0 0 0 0 0 0 0 0 0 0 0 0 0 0 0 0 0 0 0 0 0 0 0 0 0 0 0 0 0 0 0 0 0 0 147 110 0 96 377 499
0 0 0 0 0 0 0 0 0 10 0 0 0 0 0 0 0 0 0 0 0 0 0 0 0 0 0 0 0 0 0 0 0 0 0 0 0 0 0 0 215 20 142 23 269
0 0 0 0 0 0 0 0 10 0 0 0 0 0 0 0 0 0 0 0 0 0 0 0 0 0 0 0 0 0 0 0 0 0 0 0 0 0 0 0 0 110 12 0 0
0 0 0 0 0 0 0 0 0 0 0 0 0 0 0 0 0 0 0 0 0 0 0 0 0 0 0 0 0 0 0 0 0 0 0 0 0 0 0 0 0 0 24 4 19
0 0 0 0 0 0 0 0 0 0 0 0 0 0 0 0 0 0 0 0 0 0 0 0 0 0 0 1 0 0 0 0 0 3 0 0 0 0 0 0 0 0 0 60 86
0 1 0 0 0 4 0 0 0 0 0 0 0 0 0 0 0 0 0 0 0 0 0 0 0 0 0 0 0 1 1 0 17 0 6 0 0 3 0 0 0 0 0 2 74
0 0 0 0 0 0 0 0 0 0 0 0 0 0 0 0 0 0 0 0 0 0 0 0 0 0 0 0 0 0 0 0 0 1 26 5 0 0 2 0 0 0 0 0 47
0 1 1 0 0 0 0 0 0 0 0 0 0 0 0 0 0 0 0 0 0 0 0 0 0 0 0 0 0 0 0 0 0 0 0 0 1 0 1 8 29 12 1 0 0
0 0 0 0 0 0 0 0 0 0 0 0 2 0 0 0 0 0 4 3 6 14 2 2 5 0 0 0 0 0 0 0 0 2 0 0 0 1 0 0 7 26 45 8 6
0 0 0 0 0 0 0 0 0 0 0 1 0 0 0 0 0 0 0 3 19 19 42 107 9 34 8 0 0 0 0 0 0 0 1 0 0 0 0 0 0 0 37 239 177
0 0 0 0 0 0 0 0 0 0 0 0 0 0 1 1 2 2 1 0 6 19 55 63 83 58 10 21 1 0 0 0 0 0 0 0 0 0 0 0 0 0 0 2 158
CIN
0 0 0 0 0 0 0 0 0 0 0 0 0 0 0 0 0 0 0 0 0 0 0 0 0 0 0 0 0 -4 0 -3 -18 -61 -31 -43 -15 -6 -4 -4 -2 -2 -107 -83 -60
0 0 0 0 0 0 0 0 0 0 0 0 0 0 0 0 0 0 0 0 0 0 0 0 0 0 0 0 0 -2 -2 -24 -24 -35 0 0 -135 -48 -6 -4 -25 -1 -50 -53 -59
0 0 0 0 0 0 0 0 0 0 0 0 0 0 0 0 0 0 0 0 0 0 0 0 0 0 0 0 0 0 0 -48 -42 -16 -148 -46 -106 -14 -2 -3 -13 -9 -31 -57 -54
0 0 0 0 0 0 0 0 0 0 0 0 0 0 0 0 0 0 0 0 0 0 0 0 0 0 0 0 0 -2 -2 -1 -9 -21 -8 -26 -5 -75 -50 -94 -61 -8 -28 -47 -62
0 0 0 0 0 0 0 0 0 0 0 0 0 0 0 0 0 0 0 0 0 0 0 0 0 0 0 0 0 0 0 -3 -12 -2 -2 -4 -35 -142 -98 0 -75 -5 -36 -47 -45
0 0 0 0 0 0 0 0 0 0 0 0 0 0 0 0 0 0 0 0 0 0 0 0 0 0 0 0 0 0 0 0 -3 0 -2 -11 -18 -58 -56 -200 -37 -38 -82 -40 -34
0 0 0 0 0 0 0 0 0 0 0 0 0 0 0 0 0 0 0 0 0 0 0 0 0 0 0 0 0 0 0 0 0 0 -4 -10 -11 -9 -23 -13 -67 -32 -83 -89 -34
0 0 0 0 0 0 0 0 0 0 0 0 0 0 0 0 0 0 0 0 0 0 0 0 0 0 0 0 0 0 0 0 0 0 -27 -6 -4 -41 -107 -118 -6 -9 -28 -31 -17
0 0 0 0 0 0 0 0 0 0 0 0 0 0 0 0 0 0 0 0 0 0 0 0 0 0 0 0 0 0 0 0 0 0 0 -3 -12 -52 -136 -132 -7 -2 -2 -5 -12
0 0 0 0 0 0 0 0 0 0 0 0 0 0 0 0 0 0 0 0 0 0 0 0 0 0 0 0 0 0 0 0 0 0 0 -3 -14 -180 -111 -20 -136 -7 -3 -1 -20
0 0 0 0 0 0 0 0 0 0 0 0 0 0 0 0 0 0 0 0 0 0 0 0 0 0 0 0 0 0 0 0 0 0 0 -3 -30 -157 0 0 -73 -13 -4 -3 -3
0 0 0 0 0 0 0 0 0 0 0 0 0 0 0 0 0 0 0 0 0 0 0 0 0 0 0 0 0 0 0 0 0 0 0 0 -11 -171 -39 0 -107 -113 -7 -2 -2
0 0 0 0 0 0 0 0 0 0 0 0 0 0 0 0 0 0 0 0 0 0 0 0 0 0 0 0 0 0 0 0 0 0 0 0 -6 -201 -164 -51 -132 -8 -13 -5 -2
0 0 0 0 0 0 0 0 0 0 0 0 0 0 0 0 0 0 0 0 0 0 0 0 0 0 0 0 0 0 0 0 0 0 0 0 0 -29 -103 -115 -216 -23 -12 -4 -3
0 0 0 0 0 0 0 0 0 0 0 0 0 0 0 0 0 0 0 0 0 0 0 0 0 0 0 0 0 0 0 0 0 0 0 0 0 0 -23 -51 -129 -4 -33 -3 -5
0 0 0 0 0 0 0 0 0 0 0 0 0 0 0 0 0 0 0 0 0 0 0 0 0 0 0 0 0 0 0 0 0 0 0 0 0 0 -2 -58 -184 0 -73 -6 -5
0 0 0 0 0 0 0 0 0 0 0 0 0 0 0 0 0 0 0 0 0 0 0 0 0 0 0 0 0 0 0 0 0 0 0 0 0 0 0 -38 -150 0 -109 -7 -7
0 0 0 0 0 0 0 0 0 -7 0 0 0 0 0 0 0 0 0 0 0 0 0 0 0 0 0 0 0 0 0 0 0 0 0 0 0 0 0 0 -50 -126 -69 -80 -37
0 0 0 0 0 0 0 0 -14 0 0 0 0 0 0 0 0 0 0 0 0 0 0 0 0 0 0 0 0 0 0 0 0 0 0 0 0 0 0 0 0 -42 -83 0 0
0 0 0 0 0 0 0 0 0 0 0 0 0 0 0 0 0 0 0 0 0 0 0 0 0 0 0 0 0 0 0 0 0 0 0 0 0 0 0 0 0 0 -30 -53 -69
0 0 0 0 0 0 0 0 0 0 0 0 0 0 0 0 0 0 0 0 0 0 0 0 0 0 0 -1 0 0 0 0 0 -4 0 0 0 0 0 0 0 0 0 -79 -137
0 -5 0 0 0 -1 -1 0 0 0 0 0 0 0 0 0 0 0 0 -2 0 0 0 0 0 0 0 0 0 -4 -1 0 -8 0 -9 0 0 -34 -1 0 0 0 0 -1 -148
0 0 0 0 0 -4 0 0 0 0 0 0 0 0 0 0 0 0 0 0 0 0 0 -1 0 0 0 0 0 0 0 0 0 -18 -12 -4 0 0 -39 0 0 0 0 0 -25
0 -4 -2 0 0 0 -1 0 0 0 0 0 0 0 0 0 0 0 0 0 0 0 0 0 0 0 0 0 0 -1 0 0 0 0 0 -8 -3 0 -39 -81 -15 -14 -3 0 0
0 0 0 0 0 0 0 0 0 0 0 0 -2 0 0 0 0 0 -4 -4 -3 -2 -3 -4 -5 0 0 0 0 0 0 0 0 -4 0 0 -3 -64 0 0 -104 -94 -12 -5 -10
0 0 0 0 0 0 0 0 0 0 0 -3 0 0 0 0 0 0 0 -4 -3 -5 -6 -6 -22 -6 -3 0 0 0 0 0 0 0 -15 0 0 0 0 0 0 0 -155 -37 -64
0 0 0 0 0 0 0 0 0 0 0 0 0 0 -1 -5 -4 -3 -2 0 -2 -5 -7 -10 -15 -8 -2 -4 -2 0 0 0 0 0 0 0 0 0 0 0 0 0 0 -61 -57
Wind_Speed
32 32 32 31 31 31 30 28 27 27 26 26 26 26 25 25 24 23 24 15 22 13 20 11 10 21 17 28 23 25 25 24 20 21 21 15 14 13 14 15 15 12 15 23 30
32 32 33 32 32 31 30 29 28 27 27 27 27 26 24 24 25 29 16 16 14 16 14 10 5 5 6 11 22 29 26 22 20 15 14 12 26 10 13 15 16 9 18 26 29
33 33 33 33 33 32 31 30 29 29 28 28 27 25 23 22 24 18 9 13 15 18 30 27 12 14 10 14 12 9 28 22 26 19 12 21 22 8 16 15 17 14 20 27 26
34 34 34 34 33 33 32 31 30 30 29 28 26 22 20 18 18 12 12 10 12 16 24 31 13 9 17 22 28 29 31 22 27 21 18 16 9 20 10 8 10 14 22 27 26
35 34 34 34 34 34 33 32 31 30 28 25 22 19 18 17 21 11 12 8 7 5 5 18 12 7 12 26 25 28 27 31 17 16 21 16 14 10 13 13 22 13 22 26 25
36 36 36 35 35 34 33 32 31 29 26 22 17 14 17 20 16 17 17 8 5 6 5 31 9 12 19 34 34 26 25 34 27 27 17 23 9 7 12 21 15 14 18 24 24
37 37 37 36 36 35 33 33 31 27 26 22 15 12 20 24 19 20 15 10 3 4 6 11 13 19 22 27 34 33 36 34 34 32 11 14 15 18 10 16 18 17 18 22 26
39 39 39 38 37 35 33 33 29 26 23 19 15 15 21 19 21 17 12 11 7 5 6 7 17 24 25 26 33 32 37 38 34 32 29 2 15 9 7 8 8 16 18 24 26
40 40 39 39 38 35 33 31 27 24 22 18 17 15 20 14 15 15 16 11 7 2 4 20 16 26 24 30 31 27 35 38 36 24 30 9 15 11 14 13 8 15 17 23 27
41 41 40 39 37 34 33 30 21 23 17 16 23 21 19 15 15 17 14 19 9 6 13 19 17 24 25 23 26 28 28 36 32 34 8 34 15 10 6 27 29 7 12 22 27
41 41 40 38 36 32 29 22 19 18 16 22 18 22 17 17 17 17 13 12 9 11 17 15 21 23 25 28 31 35 35 32 32 30 30 13 14 11 11 25 29 29 11 24 29
41 40 39 37 34 31 24 22 20 22 26 17 19 20 18 19 17 14 12 12 11 16 15 18 27 24 26 30 29 36 36 36 32 33 22 20 18 10 15 28 42 38 13 24 28
40 39 38 35 32 24 18 21 22 22 23 21 14 18 15 15 20 12 15 17 19 21 19 23 23 19 29 31 34 31 37 36 34 28 34 26 20 13 10 7 44 45 15 21 25
38 37 36 33 22 19 17 21 22 18 23 13 13 17 16 17 21 14 18 22 23 28 23 28 27 34 21 34 32 37 32 36 38 35 37 24 36 17 15 16 35 35 13 20 20
36 35 32 25 24 21 21 23 21 16 22 8 10 13 14 14 13 15 16 21 25 25 25 30 31 29 35 29 28 38 33 33 37 40 39 41 33 33 18 19 20 49 34 17 18
35 34 29 17 13 20 23 22 16 18 22 14 14 13 12 14 18 16 18 17 22 25 30 32 33 30 33 38 32 31 34 37 36 38 47 42 43 35 25 18 16 10 45 14 17
35 28 24 21 17 22 23 19 17 20 11 15 16 15 18 18 17 20 21 20 23 24 28 29 32 34 31 32 34 30 33 39 42 44 49 38 44 43 32 18 15 13 24 22 18
30 23 15 9 20 22 22 17 20 18 13 15 18 18 21 22 21 24 22 27 26 29 33 34 32 24 29 34 33 35 32 40 44 41 47 39 48 49 43 40 17 15 17 17 41
25 13 9 9 21 20 17 14 19 20 21 19 23 24 25 23 20 28 25 31 30 27 31 33 38 33 25 26 29 38 40 38 47 44 51 43 36 49 39 41 33 17 18 32 59
23 19 15 23 18 15 14 18 16 19 22 24 27 25 26 22 18 20 23 24 23 22 25 30 39 34 31 25 28 34 38 39 43 52 55 48 47 43 36 38 39 36 18 16 33
15 13 19 23 13 10 18 16 18 20 22 23 24 25 26 27 29 30 27 26 24 29 23 31 35 41 36 32 33 35 40 44 39 43 53 51 45 35 34 29 31 40 36 19 20
11 8 23 14 14 15 19 19 20 22 21 22 21 23 25 27 31 33 32 31 26 29 32 30 36 40 40 41 32 36 41 43 46 44 45 52 45 18 27 22 27 30 37 28 16
10 14 5 10 11 16 18 17 19 22 23 22 20 21 24 25 26 25 29 29 27 28 26 32 37 39 42 40 39 35 42 45 44 48 46 47 49 39 26 17 15 27 36 35 30
10 10 6 20 19 17 14 19 18 19 19 22 20 22 23 25 21 24 27 24 23 27 30 32 38 39 43 36 30 36 41 39 46 49 48 48 43 39 23 18 14 15 23 32 32
10 21 9 16 22 21 19 20 20 19 23 22 16 22 24 21 26 22 25 22 24 26 30 32 43 45 46 46 38 39 39 37 45 47 51 45 47 39 23 25 22 20 16 17 26
7 19 25 24 22 23 22 21 20 20 19 20 22 25 23 19 18 15 21 14 26 24 22 29 40 42 47 45 42 44 44 42 42 51 48 51 45 40 20 36 30 23 22 16 17
23 21 19 21 24 21 23 22 20 17 16 20 24 25 19 19 18 19 9 4 5 12 20 26 29 34 45 41 44 50 45 41 41 38 40 52 48 42 31 33 33 26 24 24 21
Wind_Direction
326 324 323 321 318 315 312 305 299 293 296 287 284 285 286 284 271 269 254 292 257 292 264 280 152 166 159 201 186 206 270 279 313 328 315 184 95 83 85 73 72 31 88 120 131
324 322 321 319 317 314 312 310 303 298 292 296 292 286 297 298 271 239 283 294 296 278 266 267 243 201 181 167 184 235 265 295 320 356 358 271 208 312 88 82 92 42 94 123 133
322 320 318 316 315 312 308 306 303 299 294 290 297 299 299 307 280 294 315 296 291 271 221 184 146 156 266 274 278 276 266 278 273 303 101 147 186 61 112 96 103 91 111 129 133
320 319 317 314 311 309 306 302 298 295 291 292 296 307 316 308 302 323 325 313 291 271 243 229 169 165 171 182 257 264 267 290 288 305 315 319 36 252 73 65 268 105 123 134 134
317 315 315 313 310 308 303 300 299 294 295 302 312 313 315 305 288 344 343 323 299 268 176 245 164 176 172 195 194 208 269 261 298 308 277 317 330 316 71 92 141 107 126 137 137
315 313 313 312 309 307 304 301 299 302 305 312 326 335 311 293 310 309 305 317 301 167 184 198 257 268 272 232 230 218 203 240 271 271 297 284 332 27 97 110 103 109 125 139 140
316 313 312 310 309 307 304 304 301 302 308 311 327 327 298 291 303 299 303 305 273 197 228 210 268 269 268 265 253 254 235 244 225 258 299 302 301 313 91 126 103 116 127 140 146
318 316 314 311 308 307 305 304 302 304 312 319 321 315 298 311 293 302 309 299 301 260 199 275 269 266 266 272 257 259 243 239 233 210 234 260 283 309 315 261 81 121 130 143 148
319 317 314 312 308 306 306 304 303 303 306 310 309 312 298 326 311 304 290 294 292 241 249 272 272 263 270 263 264 267 255 247 247 194 208 263 286 286 280 283 117 128 139 145 150
319 316 313 311 306 305 302 303 320 308 317 318 293 294 294 303 312 301 298 279 277 257 274 269 268 264 264 263 264 264 263 254 262 246 226 248 275 283 267 220 243 137 148 149 153
317 316 313 310 304 304 314 320 322 318 308 294 307 295 303 307 306 299 302 286 272 266 264 258 261 260 262 261 260 259 260 263 264 260 260 258 268 269 267 273 238 230 156 158 158
316 312 310 307 298 292 317 316 322 311 300 299 297 296 301 299 293 303 298 280 270 265 264 264 259 265 267 263 262 259 262 260 265 260 263 264 270 252 269 272 217 215 157 162 160
313 310 308 303 295 303 322 325 322 318 300 294 300 295 308 299 287 304 290 278 274 271 263 260 271 266 264 263 260 263 260 260 261 272 260 264 265 248 255 223 218 212 164 163 163
311 306 305 302 316 325 323 329 326 329 300 288 295 300 303 297 287 300 298 285 275 269 268 266 266 266 266 260 262 261 266 262 260 263 259 264 263 252 213 196 199 210 168 165 167
307 303 297 309 306 318 316 322 325 327 294 306 317 323 312 288 311 298 301 287 274 274 272 268 265 264 263 269 265 262 266 267 262 261 261 256 261 264 236 237 238 250 206 169 169
305 302 302 330 348 316 317 318 326 299 286 299 315 312 303 299 297 305 299 291 291 281 277 274 273 270 266 263 267 267 265 265 265 260 255 255 255 260 255 234 224 260 228 201 179
307 294 299 313 316 308 299 312 303 289 315 301 301 307 297 295 298 297 289 285 281 279 277 276 271 269 270 268 262 261 261 256 257 254 253 258 255 253 263 237 219 235 199 191 192
297 274 215 170 257 278 292 306 287 311 323 313 309 307 296 300 294 293 293 283 283 281 279 277 273 267 265 262 264 254 254 252 253 256 256 259 254 251 255 258 226 211 198 242 205
287 211 120 67 310 291 312 308 303 311 316 312 307 298 297 295 293 296 294 287 283 300 276 276 270 273 293 262 258 256 252 255 258 261 256 259 263 253 258 253 260 220 213 258 222
296 266 4 316 353 336 325 299 323 321 311 306 299 301 299 302 301 303 295 301 294 299 289 282 276 275 279 270 265 258 257 253 252 252 252 256 257 257 254 253 251 252 233 224 228
27 48 345 345 59 57 317 327 325 332 325 314 306 303 300 298 296 295 293 294 305 289 299 283 276 268 273 271 257 256 256 255 262 253 251 252 257 268 258 250 252 250 255 240 234
143 57 327 250 181 338 326 317 325 314 323 320 319 312 307 305 296 292 291 292 319 295 284 281 273 269 264 261 272 262 257 253 252 252 256 248 251 312 303 240 247 254 249 254 229
146 127 196 231 232 326 355 351 338 319 325 325 323 330 322 314 311 308 298 297 306 297 293 280 266 269 263 264 265 261 257 254 253 250 251 245 245 252 289 270 245 254 254 249 248
157 167 95 10 323 291 354 355 358 14 5 345 342 338 335 323 326 313 310 312 315 294 290 283 267 265 261 260 282 265 254 255 249 246 243 246 242 247 279 292 289 294 265 251 251
129 37 129 292 342 1 349 354 9 14 348 348 14 354 342 348 329 330 328 333 316 310 288 276 265 264 263 262 273 264 259 257 250 245 242 242 242 240 285 273 278 301 288 284 261
125 63 42 29 44 29 33 33 27 16 20 325 338 331 356 7 353 349 338 346 318 313 299 283 268 264 259 260 264 259 256 256 256 244 245 241 251 248 304 253 262 289 299 285 275
42 45 46 49 12 16 8 9 22 38 23 357 338 338 6 12 359 343 341 311 236 327 306 282 273 266 258 260 261 254 251 252 253 254 249 243 245 250 267 250 259 273 279 286 278